This is the latest recevied weather packets stored in our database for station/object W6ORV. If no packets are shown the sender has not sent any weather packets the latest 1 day(s).
| Time | Temp. | Humidity | Pressure | Rain* | Wind** | Luminosity | Snow |
|---|---|---|---|---|---|---|---|
| 1778033153 | 16.67° C | 66% | 4299.6 hPa | 0 mm | 1.34 m/s, 270° | 37 W/m² | - |
| 1778032850 | 16.67° C | 65% | 4299.5 hPa | 0 mm | 0 m/s | 42 W/m² | - |
| 1778032548 | 16.67° C | 64% | 4299.3 hPa | 0 mm | 1.34 m/s, 246° | 46 W/m² | - |
| 1778032244 | 16.67° C | 64% | 4299.5 hPa | 0 mm | 1.34 m/s, 281° | 40 W/m² | - |
| 1778031942 | 17.22° C | 64% | 4299.4 hPa | 0 mm | 0.89 m/s, 239° | 63 W/m² | - |
| 1778031637 | 17.22° C | 63% | 4299.4 hPa | 0 mm | 0.89 m/s, 265° | 43 W/m² | - |
| 1778031336 | 17.22° C | 63% | 4299.4 hPa | 0 mm | 0.89 m/s, 263° | 102 W/m² | - |
| 1778031032 | 17.78° C | 63% | 4299.4 hPa | 0 mm | 0.89 m/s, 286° | 47 W/m² | - |
| 1778030728 | 17.78° C | 62% | 4299.1 hPa | 0 mm | 2.24 m/s, 275° | 130 W/m² | - |
| 1778030426 | 17.22° C | 63% | 4299.2 hPa | 0 mm | 1.34 m/s, 224° | 123 W/m² | - |
| 1778030128 | 17.78° C | 64% | 4299.4 hPa | 0 mm | 1.34 m/s, 282° | 61 W/m² | - |
| 1778029820 | 17.78° C | 63% | 4299.4 hPa | 0 mm | 1.79 m/s, 253° | 135 W/m² | - |
| 1778029519 | 18.33° C | 63% | 4299.2 hPa | 0 mm | 1.79 m/s, 257° | 214 W/m² | - |
| 1778029215 | 18.89° C | 61% | 4299.4 hPa | 0 mm | 0.45 m/s, 179° | 245 W/m² | - |
| 1778028912 | 18.33° C | 61% | 4299.3 hPa | 0 mm | 2.24 m/s, 271° | 279 W/m² | - |
| 1778028608 | 18.33° C | 63% | 4299.4 hPa | 0 mm | 1.34 m/s, 228° | 157 W/m² | - |
| 1778028306 | 19.44° C | 60% | 4299.3 hPa | 0 mm | 1.34 m/s, 219° | 90 W/m² | - |
| 1778028002 | 20° C | 56% | 4299.3 hPa | 0 mm | 2.68 m/s, 216° | 300 W/m² | - |
| 1778027698 | 19.44° C | 53% | 4299 hPa | 0 mm | 0.45 m/s, 263° | 326 W/m² | - |
| 1778027394 | 19.44° C | 53% | 4299.1 hPa | 0 mm | 1.34 m/s, 243° | 124 W/m² | - |
| 1778027090 | 18.89° C | 55% | 4299.2 hPa | 0 mm | 0.45 m/s, 262° | 226 W/m² | - |
| 1778026786 | 18.89° C | 56% | 4299.3 hPa | 0 mm | 0.89 m/s, 241° | 238 W/m² | - |
| 1778026483 | 18.89° C | 56% | 4298.8 hPa | 0 mm | 0.45 m/s, 311° | 289 W/m² | - |
| 1778026180 | 18.89° C | 56% | 4299.1 hPa | 0 mm | 0.89 m/s, 282° | 216 W/m² | - |
| 1778025878 | 19.44° C | 56% | 4299 hPa | 0 mm | 2.24 m/s, 241° | 204 W/m² | - |
* Rain latest hour (hover to see other rain measurements)
** Current wind speed in m/s (hover to see current wind gust speed)